TimeEST,TemperatureF,Dew PointF,Humidity,Sea Level PressureIn,VisibilityMPH,Wind Direction,Wind SpeedMPH,Gust SpeedMPH,PrecipitationIn,Events,Conditions,WindDirDegrees,DateUTC
12:52 AM,45.0,28.9,53,30.08,10.0,West,12.7,20.7,N/A,,Clear,260,2013-01-10 05:52:00
1:52 AM,44.1,28.9,55,30.10,10.0,WSW,6.9,-,N/A,,Clear,250,2013-01-10 06:52:00
2:52 AM,42.1,28.9,60,30.10,10.0,WSW,6.9,-,N/A,,Clear,250,2013-01-10 07:52:00
3:52 AM,43.0,26.1,51,30.14,10.0,WNW,12.7,28.8,N/A,,Clear,290,2013-01-10 08:52:00
4:52 AM,42.1,26.1,53,30.17,10.0,WNW,11.5,21.9,N/A,,Clear,300,2013-01-10 09:52:00
5:52 AM,42.1,26.1,53,30.21,10.0,WNW,9.2,17.3,N/A,,Clear,290,2013-01-10 10:52:00
6:52 AM,41.0,25.0,53,30.25,10.0,WNW,8.1,-,N/A,,Clear,300,2013-01-10 11:52:00
7:52 AM,41.0,24.1,51,30.27,10.0,Variable,4.6,-,N/A,,Clear,0,2013-01-10 12:52:00
9:52 AM,44.1,24.1,45,30.34,10.0,WNW,9.2,19.6,N/A,,Clear,300,2013-01-10 14:52:00
10:52 AM,45.0,23.0,42,30.33,10.0,NW,13.8,27.6,N/A,,Clear,310,2013-01-10 15:52:00
11:52 AM,45.0,23.0,42,30.31,10.0,WNW,12.7,25.3,N/A,,Clear,300,2013-01-10 16:52:00
12:52 PM,45.0,23.0,42,30.32,10.0,NW,6.9,23.0,N/A,,Clear,320,2013-01-10 17:52:00
1:52 PM,46.0,24.1,42,30.35,10.0,WNW,9.2,23.0,N/A,,Clear,300,2013-01-10 18:52:00
2:52 PM,45.0,24.1,44,30.37,10.0,Variable,5.8,18.4,N/A,,Clear,0,2013-01-10 19:52:00
3:52 PM,44.1,24.1,45,30.38,10.0,Variable,6.9,-,N/A,,Clear,0,2013-01-10 20:52:00
4:52 PM,42.1,26.1,53,30.40,10.0,Variable,6.9,-,N/A,,Clear,0,2013-01-10 21:52:00
5:52 PM,42.1,28.0,58,30.43,10.0,NW,5.8,-,N/A,,Clear,320,2013-01-10 22:52:00
6:52 PM,41.0,28.0,60,30.44,10.0,Variable,5.8,-,N/A,,Clear,0,2013-01-10 23:52:00
7:52 PM,41.0,27.0,57,30.46,10.0,NNW,10.4,16.1,N/A,,Clear,340,2013-01-11 00:52:00
8:52 PM,39.9,26.1,58,30.48,10.0,NW,8.1,-,N/A,,Clear,320,2013-01-11 01:52:00
9:52 PM,39.0,27.0,62,30.49,10.0,NNW,5.8,-,N/A,,Clear,330,2013-01-11 02:52:00
10:52 PM,37.9,28.0,68,30.50,10.0,Variable,4.6,-,N/A,,Clear,0,2013-01-11 03:52:00
11:52 PM,37.9,28.0,68,30.50,10.0,Variable,5.8,-,N/A,,Clear,0,2013-01-11 04:52:00